Overview Statistics Trail Chart Weather Telemetry Raw packets
 

This is the latest recevied weather packets stored in our database for station/object KB8TTR. If no packets are shown the sender has not sent any weather packets the latest 10 day(s).

<< 25 26 27 28 29 30 31 >>
Time Temp. Humidity Pressure Rain* Wind** Luminosity Snow
1788442758 28.89° C 75% 1016 hPa 0 mm - 273 W/m² -
1788442455 28.33° C 75% 1016.1 hPa 0 mm - 257 W/m² -
1788442155 28.33° C 75% 1016 hPa 0 mm - 240 W/m² -
1788441851 28.33° C 76% 1016.1 hPa 0 mm - 224 W/m² -
1788441551 28.33° C 76% 1016.2 hPa 0 mm - 211 W/m² -
1788441250 28.33° C 77% 1016.4 hPa 0 mm - 200 W/m² -
1788440949 28.33° C 77% 1016.4 hPa 0 mm - 198 W/m² -
1788440645 28.33° C 76% 1016.3 hPa 0 mm - 193 W/m² -
1788440343 28.33° C 76% 1016.7 hPa 0 mm - 186 W/m² -
1788440038 28.33° C 77% 1016.5 hPa 0 mm - 179 W/m² -
1788439738 27.78° C 78% 1016.6 hPa 0 mm - 165 W/m² -
1788439433 27.78° C 79% 1016.4 hPa 0 mm - 155 W/m² -
1788439132 27.22° C 80% 1016.6 hPa 0 mm - 150 W/m² -
1788438826 26.67° C 81% 1016.3 hPa 0 mm - 116 W/m² -
1788438525 26.67° C 82% 1016.5 hPa 0 mm - 76 W/m² -
1788438220 26.67° C 83% 1016.5 hPa 0 mm - 68 W/m² -
1788437945 26.67° C 82% 1016.5 hPa 0 mm - 62 W/m² -
1788437614 26.11° C 83% 1016.3 hPa 0 mm - 66 W/m² -
1788437310 26.11° C 84% 1016.7 hPa 0 mm - 70 W/m² -
1788437009 26.11° C 84% 1016.6 hPa 0 mm - 70 W/m² -
1788436707 25.56° C 85% 1016.8 hPa 0 mm - 63 W/m² -
1788436402 25.56° C 86% 1016.5 hPa 0 mm - 53 W/m² -
1788436102 25° C 87% 1016.3 hPa 0 mm - 44 W/m² -
1788435798 25° C 89% 1016.3 hPa 0 mm - 36 W/m² -
1788435493 24.44° C 90% 1016.3 hPa 0 mm - 31 W/m² -

* Rain latest hour (hover to see other rain measurements)
** Current wind speed in m/s (hover to see current wind gust speed)